Weather History for Elizabethton, TN

Change the Weather History Date:

Friday, August 23, 2013

  Actual Average (KTRI) Record (KTRI)
Temperature  
Mean Temperature 72 °F 74 °F  
Max Temperature 82 °F 85 °F 99 °F (2007)
Min Temperature 62 °F 62 °F 49 °F (1997)
Degree Days  
Heating Degree Days 0 0  
Month to date heating degree days 0  
Since 1 June heating degree days 11  
Since 1 July heating degree days 0  
Cooling Degree Days 7 9  
Month to date cooling degree days 209  
Year to date cooling degree days 787  
Since 1 June cooling degree days 714  
Growing Degree Days 22 (Base 50)    
Moisture  
Dew Point 66 °F    
Average Humidity 89    
Maximum Humidity 100    
Minimum Humidity 61    
Precipitation  
Precipitation 0.00 in 0.10 in 1.49 in (1970)
Month to date precipitation 2.68  
Year to date precipitation 28.66  
Snow  
Snow 0.00 in 0.00 in - ()
Month to date snowfall 0.0  
Since 1 June snowfall 0.0  
Since 1 July snowfall 0.0  
Snow Depth -    
Sea Level Pressure  
Sea Level Pressure 30.11 in    
Wind  
Wind Speed 1 mph (West)    
Max Wind Speed 8 mph    
Max Gust Speed -    
Visibility 8 miles    
Events Rain    
T = Trace of Precipitation, MM = Missing Value Source: NWS Daily Summary

Daily Weather History Graph

Daily Weather History Graph

Search for Another Location

Airport:

Trip Planner

Search our weather history database for the weather conditions in past years. The results will help you decide how hot, cold, wet, or windy it might be!

Date:

Astronomy

Aug. 23, 2013 Rise Set
Actual Time 6:53 AM EDT 8:08 PM EDT
Civil Twilight 6:26 AM EDT 8:35 PM EDT
Nautical Twilight 5:54 AM EDT 9:07 PM EDT
Astronomical Twilight 5:20 AM EDT 9:40 PM EDT
Moon 9:34 PM EDT (8/23) 9:40 AM EDT (8/23)
Length of Visible Light 14h 09m
Length of Day
13h 15m
Waning Gibbous, 91% of the Moon is Illuminated
Aug 23
Waning Gibbous
Aug 28
Last Quarter
Sep 5
New
Sep 12
First Quarter
Sep 19
Full

Hourly Weather History & Observations

Time (EDT) Temp. Heat Index Dew Point Humidity Pressure Visibility Wind Dir Wind Speed Gust Speed Precip Events Conditions
12:15 AM 64.4 °F - 64.4 °F 100% 30.14 in 6.0 mi Calm Calm - N/A   Clear
12:35 AM 66.2 °F - 64.4 °F 94% 30.13 in 8.0 mi Calm Calm - N/A   Clear
12:55 AM 64.4 °F - 64.4 °F 100% 30.13 in 5.0 mi Calm Calm - N/A   Clear
1:15 AM 64.4 °F - 64.4 °F 100% 30.13 in 9.0 mi Calm Calm - N/A   Mostly Cloudy
1:35 AM 66.2 °F - 64.4 °F 94% 30.12 in 8.0 mi Calm Calm - N/A   Overcast
1:55 AM 66.2 °F - 64.4 °F 94% 30.10 in 6.0 mi Calm Calm - N/A   Scattered Clouds
2:15 AM 64.4 °F - 64.4 °F 100% 30.10 in 6.0 mi Calm Calm - N/A   Clear
2:35 AM 64.4 °F - 64.4 °F 100% 30.10 in 6.0 mi Calm Calm - N/A   Clear
2:55 AM 64.4 °F - 64.4 °F 100% 30.09 in 6.0 mi Calm Calm - N/A   Clear
3:15 AM 62.6 °F - 62.6 °F 100% 30.09 in 6.0 mi Calm Calm - N/A   Clear
3:35 AM 62.6 °F - 62.6 °F 100% 30.09 in 6.0 mi Calm Calm - N/A   Clear
3:55 AM 62.6 °F - 62.6 °F 100% 30.09 in 5.0 mi Calm Calm - N/A   Clear
4:15 AM 62.6 °F - 62.6 °F 100% 30.09 in 4.0 mi Calm Calm - N/A   Clear
4:35 AM 62.6 °F - 62.6 °F 100% 30.10 in 5.0 mi Calm Calm - N/A   Clear
4:55 AM 62.6 °F - 62.6 °F 100% 30.10 in 4.0 mi Calm Calm - N/A   Clear
5:15 AM 62.6 °F - 62.6 °F 100% 30.10 in 2.5 mi Calm Calm - N/A   Scattered Clouds
5:35 AM 62.6 °F - 62.6 °F 100% 30.11 in 4.0 mi Calm Calm - N/A   Mostly Cloudy
5:55 AM 62.6 °F - 62.6 °F 100% 30.11 in 7.0 mi Calm Calm - N/A   Mostly Cloudy
6:15 AM 62.6 °F - 62.6 °F 100% 30.12 in 7.0 mi Calm Calm - N/A   Mostly Cloudy
6:35 AM 64.4 °F - 64.4 °F 100% 30.12 in 8.0 mi Calm Calm - N/A   Overcast
6:55 AM 64.4 °F - 64.4 °F 100% 30.12 in 8.0 mi Calm Calm - N/A   Overcast
7:15 AM 64.4 °F - 64.4 °F 100% 30.12 in 7.0 mi Calm Calm - N/A Rain Light Rain
7:35 AM 64.4 °F - 64.4 °F 100% 30.12 in 8.0 mi Calm Calm - N/A   Overcast
7:55 AM 64.4 °F - 64.4 °F 100% 30.13 in 9.0 mi Calm Calm - N/A   Overcast
8:15 AM 64.4 °F - 64.4 °F 100% 30.13 in 6.0 mi Calm Calm - N/A   Overcast
8:35 AM 66.2 °F - 64.4 °F 94% 30.13 in 8.0 mi Calm Calm - N/A   Overcast
8:55 AM 66.2 °F - 66.2 °F 100% 30.14 in 8.0 mi Calm Calm - N/A   Overcast
9:15 AM 69.8 °F - 66.2 °F 88% 30.13 in 7.0 mi Calm Calm - N/A   Overcast
9:35 AM 69.8 °F - 66.2 °F 88% 30.13 in 5.0 mi WNW 3.5 mph - N/A   Overcast
9:55 AM 69.8 °F - 66.2 °F 88% 30.14 in 6.0 mi WNW 3.5 mph - N/A   Overcast
10:15 AM 71.6 °F - 68.0 °F 88% 30.13 in 7.0 mi WSW 4.6 mph - N/A   Overcast
10:35 AM 73.4 °F - 68.0 °F 83% 30.14 in 10.0 mi WSW 5.8 mph - N/A   Mostly Cloudy
10:55 AM 73.4 °F - 68.0 °F 83% 30.13 in 10.0 mi WNW 4.6 mph - N/A   Scattered Clouds
11:15 AM 73.4 °F - 68.0 °F 83% 30.14 in 10.0 mi NW 4.6 mph - N/A   Clear
11:35 AM 73.4 °F - 68.0 °F 83% 30.14 in 10.0 mi WSW 5.8 mph - N/A   Light Drizzle
11:55 AM 73.4 °F - 69.8 °F 88% 30.14 in 10.0 mi Variable 3.5 mph - N/A   Mostly Cloudy
12:15 PM 75.2 °F - 68.0 °F 78% 30.13 in 10.0 mi West 4.6 mph - N/A   Scattered Clouds
12:35 PM 78.8 °F - 68.0 °F 69% 30.13 in 10.0 mi Variable 5.8 mph - N/A   Scattered Clouds
12:55 PM 77.0 °F - 68.0 °F 74% 30.12 in 10.0 mi West 6.9 mph - N/A   Mostly Cloudy
1:15 PM 78.8 °F - 66.2 °F 65% 30.11 in 10.0 mi WSW 4.6 mph - N/A   Scattered Clouds
1:35 PM 78.8 °F - 68.0 °F 69% 30.11 in 10.0 mi Variable 5.8 mph - N/A   Mostly Cloudy
1:55 PM 80.6 °F 83.2 °F 68.0 °F 65% 30.10 in 10.0 mi Variable 5.8 mph - N/A   Mostly Cloudy
2:15 PM 80.6 °F 82.7 °F 66.2 °F 61% 30.09 in 10.0 mi WNW 6.9 mph - N/A   Scattered Clouds
2:35 PM 82.4 °F 86.3 °F 69.8 °F 66% 30.08 in 10.0 mi West 6.9 mph - N/A   Scattered Clouds
2:55 PM 82.4 °F 85.4 °F 68.0 °F 62% 30.08 in 10.0 mi WNW 8.1 mph - N/A   Partly Cloudy
3:15 PM 78.8 °F - 66.2 °F 65% 30.08 in 10.0 mi WNW 3.5 mph - N/A   Scattered Clouds
3:35 PM 78.8 °F - 66.2 °F 65% 30.07 in 10.0 mi WSW 5.8 mph - N/A   Scattered Clouds
3:55 PM 78.8 °F - 69.8 °F 74% 30.07 in 10.0 mi West 4.6 mph - N/A   Mostly Cloudy
4:15 PM 77.0 °F - 68.0 °F 74% 30.07 in 10.0 mi WSW 5.8 mph - N/A   Scattered Clouds
4:35 PM 73.4 °F - 69.8 °F 88% 30.06 in 7.0 mi NW 4.6 mph - N/A Rain Light Rain
4:55 PM 73.4 °F - 66.2 °F 78% 30.07 in 10.0 mi West 6.9 mph - N/A   Clear
5:15 PM 73.4 °F - 66.2 °F 78% 30.07 in 10.0 mi Variable 3.5 mph - N/A   Partly Cloudy
5:35 PM 73.4 °F - 66.2 °F 78% 30.08 in 10.0 mi SW 4.6 mph - N/A   Clear
5:55 PM 75.2 °F - 66.2 °F 73% 30.08 in 10.0 mi WSW 4.6 mph - N/A   Clear
6:15 PM 73.4 °F - 68.0 °F 83% 30.07 in 10.0 mi WSW 4.6 mph - N/A   Clear
6:35 PM 73.4 °F - 66.2 °F 78% 30.08 in 10.0 mi West 5.8 mph - N/A   Clear
6:55 PM 73.4 °F - 66.2 °F 78% 30.08 in 10.0 mi Calm Calm - N/A   Clear
7:15 PM 73.4 °F - 66.2 °F 78% 30.09 in 10.0 mi Calm Calm - N/A   Clear
7:35 PM 71.6 °F - 68.0 °F 88% 30.09 in 10.0 mi Calm Calm - N/A   Scattered Clouds
7:55 PM 69.8 °F - 68.0 °F 94% 30.10 in 9.0 mi Calm Calm - N/A   Partly Cloudy
8:15 PM 69.8 °F - 66.2 °F 88% 30.10 in 9.0 mi Calm Calm - N/A   Clear
8:35 PM 68.0 °F - 66.2 °F 94% 30.11 in 7.0 mi NW 4.6 mph - N/A   Clear
8:55 PM 66.2 °F - 66.2 °F 100% 30.12 in 7.0 mi Calm Calm - N/A   Clear
9:15 PM 66.2 °F - 66.2 °F 100% 30.13 in 7.0 mi Calm Calm - N/A Rain Light Rain
9:35 PM 66.2 °F - 66.2 °F 100% 30.14 in 7.0 mi Calm Calm - N/A   Scattered Clouds
9:55 PM 66.2 °F - 66.2 °F 100% 30.15 in 6.0 mi Calm Calm - N/A   Mostly Cloudy
10:15 PM 66.2 °F - 66.2 °F 100% 30.15 in 6.0 mi Calm Calm - N/A   Scattered Clouds
10:35 PM 66.2 °F - 66.2 °F 100% 30.15 in 6.0 mi Calm Calm - N/A   Mostly Cloudy
10:55 PM 64.4 °F - 64.4 °F 100% 30.15 in 5.0 mi Calm Calm - N/A   Partly Cloudy
11:15 PM 64.4 °F - 64.4 °F 100% 30.15 in 4.0 mi Calm Calm - N/A   Clear
11:35 PM 64.4 °F - 64.4 °F 100% 30.15 in 4.0 mi Calm Calm - N/A   Clear
11:55 PM 64.4 °F - 64.4 °F 100% 30.16 in 4.0 mi Calm Calm - N/A   Clear